Total_Precipitation_Accumulation
0.53 0.52 0.54 0.53 0.49 0.53 0.66 0.81 0.82 0.88 1.06 0.96 1.01 1.17 1.27 1.65 2.16 2.39 1.74 1.38 1.29 1.14 0.99 1.09 2.08 3.60 2.62 1.76 0.60 0.44 0.83 0.66 1.15 1.64 0.98 1.33 1.21 1.13 0.63 0.32 0.47 0.49 0.58 0.57 0.71 0.62 0.47
0.51 0.49 0.53 0.51 0.49 0.54 0.78 0.82 0.83 0.94 0.83 0.82 0.91 0.88 0.89 1.16 1.45 1.62 1.38 1.31 1.27 1.08 1.08 1.36 2.35 2.91 1.95 1.35 0.54 0.58 0.60 0.71 0.84 1.09 0.90 1.22 1.06 1.04 0.69 0.44 0.49 0.30 0.56 0.73 0.99 0.79 0.86
0.45 0.48 0.50 0.49 0.54 0.67 0.75 0.65 0.58 0.58 0.66 0.73 0.86 0.84 0.75 1.05 1.27 1.34 1.29 1.23 1.13 0.93 1.13 1.51 2.07 2.15 1.76 1.20 0.80 0.84 0.41 0.80 1.16 0.86 0.94 0.97 1.02 1.28 0.85 0.52 0.35 0.38 0.78 1.05 1.10 1.24 1.23
0.48 0.47 0.48 0.50 0.63 0.72 0.62 0.51 0.55 0.56 0.62 0.82 0.89 0.78 0.71 0.89 0.93 0.94 0.90 0.84 0.91 1.10 1.39 1.91 2.39 1.82 2.07 1.19 0.75 0.53 0.29 0.47 0.86 1.13 1.10 1.20 0.84 1.08 0.79 0.53 0.53 0.78 1.08 1.06 0.93 1.30 1.92
0.52 0.49 0.52 0.60 0.76 0.66 0.56 0.55 0.61 0.59 0.74 0.94 0.93 0.91 0.97 1.05 0.97 1.01 1.05 1.09 0.99 0.94 1.44 2.15 2.14 1.71 1.99 1.45 0.70 0.25 0.26 0.43 0.79 1.56 1.99 2.12 1.76 1.28 0.76 0.86 0.87 0.75 0.70 0.80 0.76 0.77 1.88
0.60 0.59 0.59 0.61 0.66 0.57 0.62 0.63 0.64 0.73 0.99 1.10 1.10 1.36 1.29 0.98 1.10 1.16 1.13 1.98 2.01 1.02 1.62 2.00 1.79 1.75 1.71 1.34 0.56 0.28 0.35 0.58 1.02 1.99 2.73 2.93 2.77 1.64 0.67 0.84 0.78 0.84 0.40 0.44 0.70 0.62 1.10
0.58 0.63 0.52 0.69 0.57 0.64 0.66 0.70 0.66 0.86 1.06 1.16 1.18 1.20 0.97 0.94 0.93 0.82 1.02 1.78 1.96 2.11 2.32 1.89 1.04 0.79 0.94 0.94 0.58 0.55 0.54 0.77 1.65 2.39 2.47 2.53 2.11 1.32 0.38 0.23 0.25 0.21 0.33 0.26 0.54 0.72 0.54
0.63 0.69 0.69 0.68 0.65 0.60 0.69 0.69 0.75 0.90 0.98 0.98 0.94 0.88 0.83 0.88 1.00 1.19 1.33 1.58 1.29 1.75 2.66 1.85 0.78 0.61 0.64 0.58 0.84 0.71 0.85 1.49 1.82 2.21 1.99 2.18 1.34 0.79 0.63 0.34 0.32 0.30 0.32 0.27 0.42 0.71 0.63
0.72 0.75 0.76 0.68 0.58 0.60 0.67 0.74 0.94 1.06 1.10 0.99 0.81 0.77 0.80 0.95 1.03 1.40 1.30 1.01 1.01 1.12 2.06 2.28 1.29 1.07 0.85 0.58 0.89 0.78 1.15 1.54 1.63 1.53 1.24 1.32 0.67 0.40 0.62 0.55 0.47 0.28 0.27 0.21 0.41 0.47 0.43
0.76 0.68 0.64 0.59 0.64 0.73 0.77 0.79 0.88 0.99 1.10 1.03 0.90 0.96 1.04 1.17 1.35 1.02 1.27 0.94 0.83 1.14 1.70 2.01 1.23 1.16 0.65 1.07 1.26 0.57 1.63 1.59 1.70 1.35 1.03 1.18 0.70 0.47 0.46 0.77 0.43 0.35 0.15 0.25 0.52 0.66 0.56
0.97 0.73 0.61 0.57 0.63 0.76 0.91 0.98 1.08 1.09 1.18 1.25 1.29 1.09 0.93 1.28 1.31 1.16 0.86 0.64 0.87 1.51 1.82 1.42 1.07 0.75 0.89 0.89 0.67 0.79 1.30 1.21 1.09 1.09 1.07 0.96 0.61 0.70 0.52 0.79 0.41 0.48 0.19 0.25 0.43 0.77 1.20
0.80 0.56 0.62 0.71 0.78 0.80 0.85 0.94 1.25 1.43 1.38 1.41 1.25 1.18 1.07 1.05 0.98 0.98 0.84 0.61 1.29 1.70 2.25 2.04 1.51 1.31 0.78 0.56 0.56 0.99 1.32 0.99 0.91 0.97 1.01 0.59 0.44 0.88 0.75 0.60 0.55 0.44 0.47 0.49 0.76 1.15 1.80
0.63 0.60 0.79 0.89 0.91 0.92 1.00 1.23 1.36 1.22 1.26 1.25 1.21 1.41 1.31 0.79 0.89 0.85 1.31 1.13 1.54 1.31 1.23 1.47 1.17 0.57 0.41 0.53 0.87 1.22 1.31 0.85 1.20 1.60 1.47 1.24 0.99 0.84 0.76 1.00 1.04 0.76 1.08 1.86 1.90 2.12 1.09
0.65 0.70 0.87 0.96 1.08 1.27 1.55 1.69 1.36 1.16 1.22 1.19 1.42 1.45 1.47 1.01 0.94 0.99 1.80 1.29 1.24 0.90 0.99 0.82 0.41 0.39 0.51 0.40 0.58 0.77 1.08 0.71 0.50 0.61 0.87 1.02 1.43 1.20 0.79 0.88 1.23 1.00 1.04 1.62 1.70 1.08 0.90
0.70 0.94 1.18 1.21 1.40 1.67 1.71 1.42 1.13 1.18 1.26 1.30 1.78 1.97 1.74 1.48 1.20 1.32 1.48 1.23 1.15 1.03 0.98 0.49 0.33 0.37 0.41 0.19 0.29 0.53 0.47 0.42 0.40 0.39 0.96 0.79 0.99 0.64 0.78 0.62 0.85 0.91 0.96 0.92 1.64 0.89 0.91
0.90 1.06 1.25 1.52 1.67 1.77 1.63 1.28 1.39 1.40 1.59 1.68 2.35 2.66 1.63 1.35 1.47 1.46 1.34 1.15 0.81 0.47 0.29 0.19 0.33 0.16 0.11 0.06 0.12 0.12 0.19 0.10 0.23 0.21 0.36 0.62 0.95 1.01 0.87 0.78 0.67 0.65 0.58 1.14 1.96 1.74 1.11
1.04 1.24 1.42 1.70 1.88 1.97 1.72 1.52 1.61 1.81 1.76 2.14 2.38 2.51 1.68 1.75 2.08 2.07 1.62 1.22 0.50 0.19 0.15 0.17 0.15 0.13 0.05 0.09 0.16 0.30 0.42 0.34 0.30 0.32 0.40 0.87 1.53 1.22 1.15 0.88 0.63 0.84 1.03 0.78 1.14 1.31 1.24
1.17 1.35 1.59 1.77 2.06 2.05 2.06 1.88 1.79 2.09 2.03 2.39 2.27 2.08 1.93 2.35 2.58 1.83 1.12 0.81 0.48 0.16 0.17 0.15 0.15 0.12 0.22 0.23 0.25 0.23 0.23 0.37 0.21 0.19 0.48 0.62 1.29 1.11 0.92 0.48 0.42 0.54 0.60 0.60 1.53 1.17 0.94
1.39 1.38 1.39 1.64 1.92 2.20 2.58 2.33 1.65 2.07 2.27 2.27 2.22 1.96 2.78 1.58 1.15 0.78 0.49 0.45 0.31 0.13 0.18 0.27 0.26 0.21 0.23 0.22 0.32 0.20 0.16 0.14 0.07 0.08 0.45 0.77 1.48 1.12 0.81 0.66 0.75 1.11 0.69 0.73 1.13 1.72 1.32
1.53 1.40 1.41 1.64 1.87 2.12 2.48 2.68 2.03 1.94 2.18 2.44 2.36 2.22 3.82 2.50 0.64 0.30 0.57 0.59 0.38 0.16 0.21 0.29 0.32 0.20 0.22 0.15 0.14 0.28 0.07 0.05 0.04 0.05 0.31 1.09 1.26 1.16 1.03 0.92 1.13 0.99 0.49 0.76 1.51 1.78 0.65
1.49 1.33 1.30 1.61 1.86 2.00 2.22 2.82 3.19 2.60 2.56 2.46 2.09 1.23 1.07 1.16 0.61 0.25 0.60 0.64 0.52 0.40 0.29 0.24 0.25 0.13 0.39 0.53 0.22 0.12 0.12 0.16 0.09 0.06 0.30 0.96 1.43 1.33 0.58 0.42 0.79 0.73 0.46 0.57 1.18 0.73 0.82
1.42 1.32 1.28 1.46 1.97 2.21 2.12 2.28 2.97 2.66 2.81 2.03 1.48 1.17 0.66 0.41 0.20 0.29 0.41 0.51 0.47 0.52 0.56 0.44 0.40 0.24 0.45 0.61 0.51 0.64 0.56 0.50 0.38 0.23 0.34 0.76 1.20 0.88 0.41 0.26 0.44 0.60 0.30 0.43 0.63 0.47 0.40
1.23 1.34 1.32 1.35 1.68 2.16 2.01 2.21 2.53 2.32 2.99 2.32 1.35 1.18 1.36 0.92 0.40 0.41 0.36 0.44 0.50 0.63 0.56 0.34 0.44 0.65 0.55 0.35 0.40 0.33 0.25 0.18 0.21 0.25 0.40 0.78 0.93 1.17 0.88 0.43 0.67 0.72 0.38 0.40 0.51 0.39 0.29
1.51 1.56 1.71 1.54 1.61 1.87 1.94 2.12 2.35 2.43 2.79 2.57 1.74 2.14 2.26 1.27 0.56 0.45 0.40 0.37 0.43 0.53 0.95 0.52 0.49 0.75 0.44 0.24 0.19 0.13 0.09 0.06 0.10 0.12 0.22 0.60 0.90 1.40 1.11 0.77 0.96 0.63 0.31 0.23 0.25 0.26 0.20
1.70 1.72 1.85 1.92 2.03 1.77 1.82 1.95 2.11 2.19 2.03 2.03 1.67 2.30 2.52 1.76 0.63 0.47 0.32 0.45 0.57 0.56 0.67 0.57 0.34 0.33 0.22 0.24 0.51 0.44 0.21 0.16 0.07 0.05 0.14 0.40 0.89 1.23 0.84 0.61 0.35 0.29 0.22 0.19 0.24 0.20 0.11
1.55 1.89 2.10 2.18 2.21 1.94 1.75 1.65 1.87 1.79 1.84 1.73 1.39 2.01 3.06 2.85 1.09 0.53 0.51 0.51 0.65 0.69 0.71 0.43 0.24 0.28 0.39 0.67 0.89 0.66 0.28 0.22 0.14 0.09 0.11 0.30 0.69 1.19 0.75 0.81 0.36 0.23 0.11 0.03 0.04 0.16 0.03
1.59 1.73 2.11 2.26 2.25 2.20 2.11 1.89 1.93 1.61 1.51 1.64 1.38 1.54 3.00 3.16 0.86 0.22 0.45 0.78 1.08 1.05 1.18 0.67 0.58 0.61 0.56 0.83 0.87 0.49 0.21 0.15 0.24 0.36 0.30 0.39 0.52 0.79 0.65 1.05 0.30 0.16 0.05 0.01 0.15 0.20 0.02
1.54 1.40 1.81 2.27 2.10 2.01 2.17 1.88 1.72 1.47 1.55 2.03 1.28 1.16 2.61 3.12 0.91 0.21 0.26 0.64 1.11 1.16 1.51 1.31 1.53 0.95 0.99 1.07 0.91 0.52 0.40 0.32 0.18 0.22 0.23 0.36 0.57 0.43 0.50 0.71 0.28 0.07 0.07 0.20 0.30 0.15 0.06
1.98 1.95 2.21 2.36 2.02 1.84 1.68 1.55 1.60 1.51 1.56 2.28 1.54 0.92 1.68 2.63 1.64 0.41 0.29 0.26 0.54 0.84 1.35 1.54 1.40 0.77 1.17 1.34 1.10 1.03 0.75 0.38 0.20 0.26 0.03 0.28 0.34 0.53 0.59 0.32 0.13 0.12 0.24 0.26 0.25 0.31 0.16